Zurück zum Katalog

RROCI-2

AktivWissenschaftSSO
NORAD 59106·PAYLOAD·🇺🇸 United States

Gestartet Mar 4, 2024 von Vandenberg Space Force Base

Loading…

Nächste Überflüge (nächste 24 Stunden)

TLE

AktuellSource: Space-Track

Epoche: Sep 14, 2026, 04:03 UTC

1 59106U 24043J   26257.16883921  .00001774  00000-0  14641-3 0  9992
2 59106  97.8529  30.7185 0016218  91.2779 269.0303 15.00238484138101

Verfolge RROCI-2 in Echtzeit mit AllMySat

Download on the App Store